Regional Weather Roundup
Issued by NWS Burlington, VT

Home | Current Version | Previous Version | Text Only | Print | Product List | Glossary On
Versions: 1 2 3 4 5 6 7 8 9 10 11 12 13 14 15 16 17 18 19 20 21 22 23 24 25 26 27 28 29 30 31 32 33 34 35 36 37 38 39 40 41 42 43 44 45 46 47 48 49 50
000
ASUS41 KBTV 200530
RWRBTV
VERMONT REGIONAL WEATHER ROUNDUP
NATIONAL WEATHER SERVICE BURLINGTON VT
1200 AM EST MON FEB 20 2017

NOTE: "FAIR" INDICATES FEW OR NO CLOUDS BELOW 12,000 FEET WITH NO
SIGNIFICANT WEATHER AND/OR OBSTRUCTIONS TO VISIBILITY.

* THESE REPORTS ARE NOT UNDER NWS QUALITY CONTROL AND/OR DO NOT
  REPORT WEATHER SUCH AS PRECIPITATION AND FOG.

VTZ001>019-200600-
_____VERMONT_____


CITY           SKY/WX    TMP DP  RH WIND       PRES   REMARKS
BURLINGTON     CLOUDY    37  26  64 NW8       30.02R WCI  31
MONTPELIER     CLOUDY    36  28  73 N10       29.99R WCI  28
MORRISVILLE    CLOUDY    35  25  66 N7G18     30.00R WCI  29
ST. JOHNSBURY*   N/A     36  29  75 MISG      29.94R
LYNDONVILLE*   CLOUDY    33  26  76 NW6       29.96R WCI  27
MIDDLEBURY*    CLOUDY    36  19  49 N13G21    30.00R WCI  28
RUTLAND*       CLOUDY    39  30  70 NW8G16    29.97R
SPRINGFIELD    PTCLDY    42  26  53 CALM      29.93R
HIGHGATE*      CLOUDY    34  25  70 N8        30.04R WCI  27
NEWPORT*       CLOUDY    32  24  72 N9        29.99R WCI  24
BENNINGTON     MOCLDY    43  27  53 NW6       29.95S
SUTTON*          N/A     32 N/A N/A MISG        N/A
ISLAND POND*     N/A     32 N/A N/A NW6         N/A  WCI  26
GALLUP MILLS*    N/A     32 N/A N/A MISG        N/A
UNION VILLAGE*   N/A     41 N/A N/A MISG        N/A
MT. MANSFIELD*   N/A     21 N/A N/A NE3G17      N/A

_____LAKE CHAMPLAIN_____


CITY           SKY/WX    TMP DP  RH WIND       PRES   REMARKS

$$

NYZ007-026>031-035-052-083-087-200600-
_____NORTHERN NEW YORK_____


CITY           SKY/WX    TMP DP  RH WIND       PRES   REMARKS
PLATTSBURGH    CLOUDY    37  25  61 NW13G22   30.03R WCI  29
SARANAC LAKE   CLOUDY    32  25  75 VRB5      29.99R WCI  27
MASSENA        MOCLDY    33  23  66 NW9       30.11R WCI  25
OGDENSBURG*    FAIR      33  27  77 N5        30.11R WCI  29
POTSDAM*       PTCLDY   N/A N/A N/A N3        30.10R
STARK FALLS*     N/A     32 N/A N/A N6          N/A  WCI  26
WATERTOWN      CLEAR     37  28  70 NE6       30.10R
FT DRUM        PTCLDY    36  26  67 N12       30.07R WCI  28
ALBANY         MOCLDY    42  31  64 NW9       29.99R
GLENS FALLS    CLEAR     45  28  51 NW8       29.99R

$$
NHZ002-005-011-200600-
_____NEW HAMPSHIRE_____


CITY           SKY/WX    TMP DP  RH WIND       PRES   REMARKS
LEBANON        CLOUDY    41  31  67 N8        29.94R
KEENE          MOCLDY    44  29  55 N13G18    29.93R
MT WASHINGTON  FOG       14  14 100 NW61G71     N/A  VSB 0   WCI -13
PLYMOUTH       CLOUDY    40  29  64 NW8       29.93R
WHITEFIELD     CLOUDY    36  26  67 NW10      29.92R WCI  28

$$

_____REGIONAL QUEBEC LOCATIONS_____


CITY           SKY/WX    TMP DP  RH WIND       PRES   REMARKS
MONTREAL       MOCLDY    34  21  60 NW7       30.06R WCI  28
QUEBEC CITY    CLOUDY    32  19  59 N13       29.97R WCI  22
SHERBROOKE     FLURRIES  30  23  74 NW7       29.97R WCI  23

_____REGIONAL ONTARIO LOCATIONS_____


CITY           SKY/WX    TMP DP  RH WIND       PRES   REMARKS
OTTAWA         PTCLDY    30  21  69 NW13G18   30.11R WCI  20

______KEY______
VSB  - VISIBILITY IN MILES
WCI  - WIND CHILL INDEX
HX   - HEAT INDEX
$$
NNNN



USA.gov is the U.S. government's official web portal to all federal, state and local government web resources and services.